Location: Unspecified
(0.0000°N, 0.0000°E)
Time: 17:45:28
(UTC+00:00)

S-56A Canister/Altair - Pass Details

Date: 17 December 2018
Orbit: 633 x 2499 km, 38.9° (Epoch: 17 June)

Event Time Altitude Azimuth Distance (km) Brightness Sun altitude
Rises 21:21:22 0° 205° (SSW) 2,918 11.1 -45.7°
Enters shadow 21:21:38 - 204° (SSW) 2,820 11.0 -45.8°
Reaches altitude 10° 21:23:56 10° 190° (S) 2,048 - -46.3°
Maximum altitude 21:27:37 23° 136° (SE) 1,471 - -47.0°
Drops below altitude 10° 21:31:57 10° 83° (E) 2,443 - -47.9°
Sets 21:35:20 0° 70° (ENE) 3,643 - -48.6°
